• In Russia
  • List of Countries
  • For 7 days
  • Water Temperature
  • Weather Map
  • Weather Widgets
  • user-avatar
    Login

    Hourly Weather Qala i Naw

    Today, 22 September, Sunday

    Time Temperature Precipitation Wind Pressure Humidity
    00:00 +21°C° 0 mm 2 mps 678 mmHg 29%
    01:00 +20°C° 0 mm 2 mps 678 mmHg 29%
    02:00 +21°C° 0 mm 1 mps 678 mmHg 33%
    03:00 +20°C° 0 mm 1 mps 678 mmHg 38%
    04:00 +19°C° 0 mm 1 mps 678 mmHg 41%
    05:00 +22°C° 0 mm 1 mps 679 mmHg 32%
    06:00 +24°C° 0 mm 1 mps 679 mmHg 22%
    07:00 +26°C° 0 mm 1 mps 680 mmHg 13%
    08:00 +29°C° 0 mm 1 mps 681 mmHg 11%
    09:00 +32°C° 0 mm 1 mps 682 mmHg 9%
    10:00 +36°C° 0 mm 2 mps 682 mmHg 7%
    11:00 +36°C° 0 mm 4 mps 682 mmHg 9%
    12:00 +36°C° 0 mm 7 mps 682 mmHg 11%
    13:00 +37°C° 0 mm 10 mps 682 mmHg 14%
    14:00 +35°C° 0 mm 9 mps 682 mmHg 19%
    15:00 +34°C° 0 mm 9 mps 682 mmHg 24%
    16:00 +33°C° 0 mm 8 mps 683 mmHg 30%
    17:00 +29°C° 0 mm 7 mps 683 mmHg 38%
    18:00 +27°C° 0 mm 6 mps 684 mmHg 46%
    19:00 +23°C° 0 mm 5 mps 684 mmHg 54%
    20:00 +22°C° 0 mm 4 mps 685 mmHg 56%
    21:00 +21°C° 0 mm 4 mps 685 mmHg 59%
    22:00 +20°C° 0 mm 4 mps 686 mmHg 61%
    23:00 +19°C° 0 mm 3 mps 686 mmHg 64%

    Tomorrow, 23 September, Monday

    Time Temperature Precipitation Wind Pressure Humidity
    00:00 +18°C° 0 mm 2 mps 686 mmHg 66%
    01:00 +17°C° 0 mm 2 mps 685 mmHg 68%
    02:00 +16°C° 0 mm 1 mps 685 mmHg 73%
    03:00 +15°C° 0 mm 1 mps 684 mmHg 77%
    04:00 +14°C° 0 mm 1 mps 684 mmHg 81%
    05:00 +15°C° 0 mm 1 mps 684 mmHg 76%
    06:00 +16°C° 0 mm 1 mps 684 mmHg 70%
    07:00 +18°C° 0 mm 1 mps 685 mmHg 65%
    08:00 +20°C° 0 mm 1 mps 685 mmHg 58%
    09:00 +21°C° 0 mm 2 mps 684 mmHg 52%
    10:00 +24°C° 0 mm 2 mps 684 mmHg 46%
    11:00 +25°C° 0 mm 3 mps 684 mmHg 41%
    12:00 +27°C° 0 mm 3 mps 683 mmHg 36%
    13:00 +29°C° 0 mm 3 mps 683 mmHg 31%
    14:00 +29°C° 0 mm 4 mps 683 mmHg 30%
    15:00 +29°C° 0 mm 4 mps 682 mmHg 29%
    16:00 +30°C° 0 mm 4 mps 682 mmHg 28%
    17:00 +26°C° 0 mm 3 mps 682 mmHg 37%
    18:00 +23°C° 0 mm 2 mps 681 mmHg 46%
    19:00 +20°C° 0 mm 1 mps 681 mmHg 56%
    20:00 +19°C° 0 mm 1 mps 681 mmHg 57%
    21:00 +19°C° 0 mm 1 mps 681 mmHg 58%
    22:00 +16°C° 0 mm 0 mps 681 mmHg 59%
    23:00 +16°C° 0 mm 0 mps 681 mmHg 62%

    Day after tomorrow, 24 September, Tuesday

    Time Temperature Precipitation Wind Pressure Humidity
    00:00 +15°C° 0 mm 0 mps 681 mmHg 65%
    01:00 +15°C° 0 mm 0 mps 680 mmHg 69%
    02:00 +14°C° 0 mm 0 mps 680 mmHg 69%
    03:00 +14°C° 0 mm 0 mps 680 mmHg 70%
    04:00 +13°C° 0 mm 0 mps 680 mmHg 70%
    05:00 +16°C° 0 mm 0 mps 680 mmHg 60%
    06:00 +18°C° 0 mm 0 mps 681 mmHg 50%
    07:00 +20°C° 0 mm 0 mps 682 mmHg 40%
    08:00 +24°C° 0 mm 1 mps 682 mmHg 35%
    09:00 +26°C° 0 mm 2 mps 683 mmHg 31%
    10:00 +29°C° 0 mm 3 mps 683 mmHg 27%
    11:00 +30°C° 0 mm 3 mps 683 mmHg 25%
    12:00 +32°C° 0 mm 4 mps 682 mmHg 23%
    13:00 +33°C° 0 mm 4 mps 682 mmHg 20%
    14:00 +33°C° 0 mm 4 mps 682 mmHg 20%
    15:00 +33°C° 0 mm 4 mps 682 mmHg 19%
    16:00 +33°C° 0 mm 3 mps 682 mmHg 19%
    17:00 +29°C° 0 mm 3 mps 681 mmHg 25%
    18:00 +25°C° 0 mm 2 mps 681 mmHg 32%
    19:00 +22°C° 0 mm 1 mps 681 mmHg 38%
    20:00 +21°C° 0 mm 1 mps 681 mmHg 40%
    21:00 +20°C° 0 mm 1 mps 681 mmHg 41%
    22:00 +19°C° 0 mm 1 mps 681 mmHg 43%
    23:00 +18°C° 0 mm 1 mps 681 mmHg 44%

    25 September, Wednesday

    Time Temperature Precipitation Wind Pressure Humidity
    00:00 +18°C° 0 mm 1 mps 680 mmHg 45%
    01:00 +16°C° 0 mm 1 mps 680 mmHg 46%
    02:00 +16°C° 0 mm 1 mps 680 mmHg 47%
    03:00 +15°C° 0 mm 1 mps 680 mmHg 48%
    04:00 +14°C° 0 mm 0 mps 680 mmHg 50%
    05:00 +16°C° 0 mm 0 mps 681 mmHg 43%
    06:00 +18°C° 0 mm 0 mps 682 mmHg 36%
    07:00 +20°C° 0 mm 0 mps 682 mmHg 29%
    08:00 +25°C° 0 mm 1 mps 683 mmHg 26%
    09:00 +27°C° 0 mm 1 mps 683 mmHg 23%
    10:00 +29°C° 0 mm 2 mps 683 mmHg 20%
    11:00 +30°C° 0 mm 2 mps 683 mmHg 18%
    12:00 +31°C° 0 mm 3 mps 683 mmHg 17%
    13:00 +34°C° 0 mm 4 mps 683 mmHg 16%
    14:00 +34°C° 0 mm 4 mps 682 mmHg 16%
    15:00 +34°C° 0 mm 3 mps 682 mmHg 16%
    16:00 +34°C° 0 mm 3 mps 682 mmHg 16%
    17:00 +29°C° 0 mm 2 mps 682 mmHg 22%
    18:00 +25°C° 0 mm 1 mps 682 mmHg 29%
    19:00 +19°C° 0 mm 0 mps 681 mmHg 35%
    20:00 +21°C° 0 mm 1 mps 681 mmHg 36%
    21:00 +21°C° 0 mm 1 mps 682 mmHg 37%
    22:00 +21°C° 0 mm 1 mps 682 mmHg 38%
    23:00 +20°C° 0 mm 1 mps 682 mmHg 41%

    26 September, Thursday

    Time Temperature Precipitation Wind Pressure Humidity
    00:00 +20°C° 0 mm 1 mps 681 mmHg 44%
    01:00 +20°C° 0 mm 1 mps 681 mmHg 47%
    02:00 +17°C° 0 mm 0 mps 681 mmHg 49%
    03:00 +17°C° 0 mm 0 mps 681 mmHg 51%
    04:00 +16°C° 0 mm 0 mps 681 mmHg 54%
    05:00 +19°C° 0 mm 0 mps 682 mmHg 43%
    06:00 +21°C° 0 mm 0 mps 683 mmHg 33%
    07:00 +23°C° 0 mm 0 mps 684 mmHg 23%
    08:00 +28°C° 0 mm 1 mps 684 mmHg 19%
    09:00 +31°C° 0 mm 1 mps 685 mmHg 16%
    10:00 +35°C° 0 mm 2 mps 685 mmHg 12%
    11:00 +36°C° 0 mm 2 mps 685 mmHg 11%
    12:00 +37°C° 0 mm 3 mps 684 mmHg 10%
    13:00 +40°C° 0 mm 4 mps 684 mmHg 9%
    14:00 +40°C° 0 mm 4 mps 684 mmHg 9%
    15:00 +40°C° 0 mm 4 mps 683 mmHg 8%
    16:00 +40°C° 0 mm 4 mps 683 mmHg 8%
    17:00 +34°C° 0 mm 3 mps 682 mmHg 16%
    18:00 +29°C° 0 mm 2 mps 682 mmHg 24%
    19:00 +25°C° 0 mm 1 mps 681 mmHg 32%
    20:00 +25°C° 0 mm 1 mps 681 mmHg 26%
    21:00 +25°C° 0 mm 2 mps 682 mmHg 21%
    22:00 +25°C° 0 mm 2 mps 682 mmHg 16%
    23:00 +24°C° 0 mm 2 mps 682 mmHg 18%

    27 September, Friday

    Time Temperature Precipitation Wind Pressure Humidity
    00:00 +24°C° 0 mm 1 mps 682 mmHg 20%
    01:00 +23°C° 0 mm 1 mps 682 mmHg 22%
    02:00 +22°C° 0 mm 1 mps 682 mmHg 24%
    03:00 +21°C° 0 mm 1 mps 681 mmHg 27%
    04:00 +20°C° 0 mm 1 mps 681 mmHg 30%
    05:00 +22°C° 0 mm 1 mps 682 mmHg 27%
    06:00 +24°C° 0 mm 1 mps 683 mmHg 23%
    07:00 +24°C° 0 mm 0 mps 683 mmHg 19%
    08:00 +28°C° 0 mm 1 mps 684 mmHg 17%
    09:00 +31°C° 0 mm 1 mps 684 mmHg 14%
    10:00 +34°C° 0 mm 1 mps 684 mmHg 11%
    11:00 +36°C° 0 mm 2 mps 684 mmHg 10%
    12:00 +38°C° 0 mm 3 mps 684 mmHg 8%
    13:00 +40°C° 0 mm 4 mps 684 mmHg 7%
    14:00 +40°C° 0 mm 5 mps 684 mmHg 7%
    15:00 +40°C° 0 mm 5 mps 683 mmHg 7%
    16:00 +39°C° 0 mm 6 mps 683 mmHg 7%
    17:00 +34°C° 0 mm 4 mps 682 mmHg 11%
    18:00 +29°C° 0 mm 3 mps 682 mmHg 14%
    19:00 +25°C° 0 mm 1 mps 681 mmHg 17%
    20:00 +26°C° 0 mm 2 mps 681 mmHg 16%
    21:00 +26°C° 0 mm 3 mps 682 mmHg 15%
    22:00 +27°C° 0 mm 3 mps 682 mmHg 15%
    23:00 +27°C° 0 mm 3 mps 682 mmHg 14%
    Show more